Location: Muenchen
(48.1800°N, 11.5800°E)
Time: 11:44:50
(UTC+01:00)

Cosmos 1455 - Visible Passes

Search period start: 16 January 2017 00:00
Search period end: 26 January 2017 00:00
Orbit: 502 x 529 km, 82.5° (Epoch: 15 January)

Date Brightness Start Highest point End Pass type
(mag) Time Alt. Az. Time Alt. Az. Time Alt. Az.
19 Jan 4.2 19:10:40 10° N 19:11:44 18° N 19:11:44 18° N visible
20 Jan 2.0 18:55:37 10° N 18:59:16 67° ENE 18:59:16 67° ENE visible
20 Jan 5.6 20:33:51 10° WNW 20:34:33 10° W 20:34:33 10° W visible
21 Jan 5.1 07:14:43 10° SE 07:17:34 21° E 07:20:26 10° NE visible
21 Jan 2.2 18:40:36 10° N 18:44:20 55° ENE 18:48:05 10° SSE visible
21 Jan 5.4 20:17:54 10° WNW 20:19:34 13° W 20:21:14 10° WSW visible
22 Jan 5.2 07:00:02 10° SE 07:02:35 18° E 07:05:09 10° NE visible
22 Jan 2.4 18:25:35 10° N 18:29:16 45° ENE 18:32:56 10° SSE visible
22 Jan 5.2 20:02:23 10° NW 20:04:35 15° W 20:06:48 10° WSW visible
23 Jan 5.3 06:45:26 10° ESE 06:47:36 15° E 06:49:46 10° NE visible
23 Jan 2.6 18:10:36 10° N 18:14:10 38° ENE 18:17:45 10° SE visible
23 Jan 5.0 19:47:00 10° NW 19:49:36 18° W 19:52:12 10° SW visible
24 Jan 5.5 06:31:00 10° ESE 06:32:37 12° E 06:34:14 10° ENE visible
24 Jan 2.9 17:55:38 10° N 17:59:05 32° ENE 18:02:32 10° SE visible
24 Jan 4.8 19:31:42 10° NW 19:34:36 21° W 19:37:31 10° SW visible
25 Jan 5.8 06:17:00 10° E 06:17:39 10° E 06:18:16 10° ENE visible
25 Jan 3.1 17:40:41 10° NNE 17:43:59 27° ENE 17:47:16 10° SE visible
25 Jan 4.5 19:16:27 10° NW 19:19:36 25° W 19:22:45 10° SW visible
